Dashboard

GC4WHDZ - VVV-Laakdal49

by VVV-Laakdal

published: Mon, 13 Jan 2014 12:41:47 pm

Certitude Solution



Puzzle stats
1279 Woo-Hoo!
534 D'Oh!
Latest activity:
Thu, 29 Dec 2016
Note that some of those attempts may have been anonymous.



You can subscribe to an RSS feed for:
 this puzzle
 VVV-Laakdal's puzzles
 puzzles in N51 E004 quadrangle
 puzzles in Antwerpen
 all puzzles

Your geocaching name is unknown, please sign in to identify yourself. How does it work?

Puzzle solvers, you can certify your solution here:
Show solution 
Show attempts 

(exact coordinates required)
  Stay anonymous

Certified solvers

RankUserTime (Brussels, Europe)
1.lankatrasMon, 13 Jan 2014 4:30:58 pm
2.tfxerMon, 13 Jan 2014 5:35:30 pm
3.PenJMon, 13 Jan 2014 6:08:17 pm
4.GiniroverMon, 13 Jan 2014 7:52:47 pm
5.pietSchaftMon, 13 Jan 2014 7:54:45 pm
6.Gunter67Mon, 13 Jan 2014 10:45:17 pm
7.Geronimo1848Tue, 14 Jan 2014 12:45:16 am
8.DuckyboyTue, 14 Jan 2014 1:03:34 am
9.sparadrap + tibecomTue, 14 Jan 2014 3:03:49 am
10.tinrafTue, 14 Jan 2014 8:37:16 am
11.Doogie.beTue, 14 Jan 2014 12:43:48 pm
12.De 5 LinievosTue, 14 Jan 2014 1:38:34 pm
13.breeddTue, 14 Jan 2014 4:03:06 pm
14.waldogTue, 14 Jan 2014 4:27:10 pm
15.KeekjeTue, 14 Jan 2014 7:12:38 pm
16.clementoTue, 14 Jan 2014 8:26:01 pm
17.KnokkertjeTue, 14 Jan 2014 8:34:49 pm
18.rabbitsTue, 14 Jan 2014 8:46:23 pm
19.The BatTue, 14 Jan 2014 8:58:44 pm
20.purpowTue, 14 Jan 2014 9:06:12 pm
21.MREBTue, 14 Jan 2014 9:22:06 pm
22.badmintonnersTue, 14 Jan 2014 9:58:42 pm
23.hetseskeTue, 14 Jan 2014 10:59:15 pm
24.pinarello43Wed, 15 Jan 2014 1:59:05 pm
25.mb815Wed, 15 Jan 2014 2:48:25 pm
26.divemoWed, 15 Jan 2014 3:42:53 pm
27.RUYAWed, 15 Jan 2014 5:59:20 pm
28.rommarWed, 15 Jan 2014 6:48:58 pm
29.gabberjasperWed, 15 Jan 2014 8:12:14 pm
30.BelgiumJeepersWed, 15 Jan 2014 8:34:07 pm
31.HarristideWed, 15 Jan 2014 8:43:21 pm
32.immerthoeveWed, 15 Jan 2014 8:58:43 pm
33.GAACOWed, 15 Jan 2014 9:05:54 pm
34.JambofredjeWed, 15 Jan 2014 9:41:18 pm
35.Fisty3Wed, 15 Jan 2014 11:07:02 pm
36.ErannWed, 15 Jan 2014 11:14:51 pm
37.ChristyvhWed, 15 Jan 2014 11:16:01 pm
38.BanjojefWed, 15 Jan 2014 11:49:19 pm
39.dagger38Wed, 15 Jan 2014 11:49:49 pm
40.tesslooThu, 16 Jan 2014 12:32:06 am
41.JD85Thu, 16 Jan 2014 12:45:14 pm
42.Ricky50Thu, 16 Jan 2014 12:56:13 pm
43.SnuffelkeThu, 16 Jan 2014 1:35:13 pm
44.amslouisThu, 16 Jan 2014 2:49:27 pm
45.franske2Thu, 16 Jan 2014 3:24:45 pm
46.VindenPuntNLThu, 16 Jan 2014 3:34:37 pm
47.Roberto 01Thu, 16 Jan 2014 5:26:21 pm
48.-S@m-Thu, 16 Jan 2014 7:08:47 pm
49.wout147Thu, 16 Jan 2014 8:06:45 pm
50.de van nassautjesThu, 16 Jan 2014 8:17:10 pm
51.peganordThu, 16 Jan 2014 9:12:14 pm
52.WibokeThu, 16 Jan 2014 9:19:15 pm
53.A.A.A.kesThu, 16 Jan 2014 9:33:03 pm
54.1TEAMThu, 16 Jan 2014 9:36:43 pm
55.The Usual SuspectzThu, 16 Jan 2014 9:40:21 pm
56.GOTCHAYOSEThu, 16 Jan 2014 10:29:01 pm
57.dobermann.deThu, 16 Jan 2014 11:35:14 pm
58.lessairFri, 17 Jan 2014 3:55:50 am
59.bobo bonbonFri, 17 Jan 2014 4:33:20 am
60.JP&CDBFri, 17 Jan 2014 10:16:18 am
61.Fox64Fri, 17 Jan 2014 10:45:05 am
62.heksemie anirca62Fri, 17 Jan 2014 11:17:30 am
63.Familie HendrikxFri, 17 Jan 2014 2:10:16 pm
64.Old DavisFri, 17 Jan 2014 2:30:59 pm
65.xedionFri, 17 Jan 2014 3:41:20 pm
66.hincapieFri, 17 Jan 2014 4:20:00 pm
67.KLUPPELFri, 17 Jan 2014 5:03:39 pm
68.nickipelFri, 17 Jan 2014 9:25:54 pm
69.aarciaFri, 17 Jan 2014 10:01:34 pm
70.kurtwuytsSat, 18 Jan 2014 12:15:36 am
71.Geo-shuttleSat, 18 Jan 2014 12:47:20 pm
72.RHCVSat, 18 Jan 2014 12:47:31 pm
73.Cableguy666Sat, 18 Jan 2014 2:09:11 pm
74.Team DamenwebSat, 18 Jan 2014 6:39:10 pm
75.DwiggerSat, 18 Jan 2014 8:39:49 pm
76.gunner4488Sat, 18 Jan 2014 10:13:53 pm
77.jochen419Sat, 18 Jan 2014 10:24:43 pm
78.GeroMinosSun, 19 Jan 2014 2:49:16 am
79.Onslow²Sun, 19 Jan 2014 12:36:42 pm
80.Davy&YentlSun, 19 Jan 2014 3:43:35 pm
81.JOTHBSun, 19 Jan 2014 4:37:35 pm
82.BalthazaarSun, 19 Jan 2014 6:50:02 pm
83.on4bamSun, 19 Jan 2014 8:20:50 pm
84.Gooz74Sun, 19 Jan 2014 9:22:11 pm
85.denjakkeSun, 19 Jan 2014 10:33:33 pm
86.JoanyoSun, 19 Jan 2014 11:42:16 pm
87.moriske1Mon, 20 Jan 2014 12:47:44 am
88.tinobootMon, 20 Jan 2014 9:19:57 am
89.de achterlichtjesMon, 20 Jan 2014 11:44:23 am
90.Blinky BillMon, 20 Jan 2014 2:17:02 pm
91.geojorenMon, 20 Jan 2014 2:25:47 pm
92.smeugskeMon, 20 Jan 2014 2:30:46 pm
93.karmelietjesMon, 20 Jan 2014 3:32:45 pm
94.badmenMon, 20 Jan 2014 6:36:42 pm
95.JanHMon, 20 Jan 2014 6:41:16 pm
96.janvandevisMon, 20 Jan 2014 7:01:17 pm
97.ZwuzzeMon, 20 Jan 2014 10:29:01 pm
98.garfunkel.beMon, 20 Jan 2014 11:44:45 pm
99.the 4 beesTue, 21 Jan 2014 8:30:33 am
100.mapa05Tue, 21 Jan 2014 10:15:40 am
101.stefkevdvTue, 21 Jan 2014 3:27:52 pm
102.Team VerostefTue, 21 Jan 2014 6:21:25 pm
103.RilderaTue, 21 Jan 2014 6:33:42 pm
104.Patkrimson2Tue, 21 Jan 2014 7:07:16 pm
105.NenjitsTue, 21 Jan 2014 8:13:05 pm
106.Team GrobbebolTue, 21 Jan 2014 8:17:45 pm
107.geosideTue, 21 Jan 2014 9:08:13 pm
108.WaaslanderTue, 21 Jan 2014 9:31:39 pm
109.omaenopaTue, 21 Jan 2014 10:26:10 pm
110.Geronimo62Wed, 22 Jan 2014 5:30:50 am
111.Daems teamWed, 22 Jan 2014 8:44:14 am
112.EsteRietWed, 22 Jan 2014 12:52:21 pm
113.eyndejanWed, 22 Jan 2014 2:34:36 pm
114.AnnicksjeWed, 22 Jan 2014 4:01:34 pm
115.de-buertjesWed, 22 Jan 2014 4:53:12 pm
116.HEYTSEWed, 22 Jan 2014 8:57:35 pm
117.Ducki3Wed, 22 Jan 2014 9:32:51 pm
118.zilumopWed, 22 Jan 2014 9:51:23 pm
119.Brain and PinkyWed, 22 Jan 2014 10:41:45 pm
120.NaturepointWed, 22 Jan 2014 11:45:21 pm
121.snobe2002Thu, 23 Jan 2014 8:29:57 am
122.sennekeThu, 23 Jan 2014 9:05:37 am
123.GreetLucThu, 23 Jan 2014 5:57:09 pm
124.joske geronThu, 23 Jan 2014 6:32:59 pm
125.cake__3001Thu, 23 Jan 2014 11:20:43 pm
126.nietjeFri, 24 Jan 2014 12:32:54 am
127.x-eliminatorFri, 24 Jan 2014 10:04:55 am
128.mercator80Fri, 24 Jan 2014 10:51:31 am
129.TanyaBrigittaDodge64Fri, 24 Jan 2014 2:44:16 pm
130.sukyFri, 24 Jan 2014 4:37:53 pm
131.AlcecFri, 24 Jan 2014 5:43:28 pm
132.Joe UltraFri, 24 Jan 2014 5:45:43 pm
133.DIDICARFri, 24 Jan 2014 6:30:51 pm
134.Sankofa73Fri, 24 Jan 2014 11:14:25 pm
135.MiezekeSat, 25 Jan 2014 12:21:16 pm
136.eddyriaSat, 25 Jan 2014 3:37:41 pm
137.Gentse HavikenSat, 25 Jan 2014 4:03:18 pm
138.springerkesSat, 25 Jan 2014 8:43:37 pm
139.DAN119Sat, 25 Jan 2014 10:03:08 pm
140.bahetiSat, 25 Jan 2014 10:34:31 pm
141.Boris the 3Sun, 26 Jan 2014 11:29:04 am
142.TekkelSun, 26 Jan 2014 6:25:05 pm
143.GlanaMon, 27 Jan 2014 1:54:57 pm
144.jackie vandenberkMon, 27 Jan 2014 4:35:39 pm
145.JonabiekMon, 27 Jan 2014 5:28:30 pm
146.jos4711Mon, 27 Jan 2014 5:34:43 pm
147.jupke007Mon, 27 Jan 2014 10:06:17 pm
148.malidaTue, 28 Jan 2014 1:33:54 pm
149.big gipsyTue, 28 Jan 2014 8:59:00 pm
150.D.T.M.Wed, 29 Jan 2014 4:35:52 pm
151.dr.jekyl end ms.hydeWed, 29 Jan 2014 8:20:57 pm
152.de bosvarkensWed, 29 Jan 2014 10:17:17 pm
153.Team BOJO NRWWed, 29 Jan 2014 10:48:02 pm
154.Stylo & JoskeThu, 30 Jan 2014 12:30:49 pm
155.Chupke&CoThu, 30 Jan 2014 6:22:34 pm
156.wodrelroThu, 30 Jan 2014 6:59:35 pm
157.ToipeFri, 31 Jan 2014 1:41:42 pm
158.XistanceFri, 31 Jan 2014 7:32:17 pm
159.jorokaFri, 31 Jan 2014 9:49:03 pm
160.gar+Sat, 1 Feb 2014 9:01:44 am
161.fourtimesfourSat, 1 Feb 2014 8:55:27 pm
162.SuperBBSun, 2 Feb 2014 12:25:37 pm
163.vanthofSun, 2 Feb 2014 1:57:34 pm
164.luc-ingaSun, 2 Feb 2014 2:59:30 pm
165.Bruintje.de.beerSun, 2 Feb 2014 11:00:45 pm
166.DiWiDiMaPaMon, 3 Feb 2014 4:28:55 pm
167.3piranja'sMon, 3 Feb 2014 9:30:23 pm
168.BèrBreeTue, 4 Feb 2014 9:08:12 am
169.lencomanTue, 4 Feb 2014 11:56:29 am
170.Bruges21Tue, 4 Feb 2014 7:17:15 pm
171.le monocleWed, 5 Feb 2014 12:37:25 pm
172.ynneb ne airWed, 5 Feb 2014 4:56:27 pm
173.Basta18Thu, 6 Feb 2014 9:01:37 am
174.zandbuddiesThu, 6 Feb 2014 9:08:44 am
175.Boldy47Thu, 6 Feb 2014 2:49:12 pm
176.lauer10Thu, 6 Feb 2014 5:50:28 pm
177.team izzigirlFri, 7 Feb 2014 9:33:52 am
178.biermanFri, 7 Feb 2014 10:07:04 am
179.DreiDFri, 7 Feb 2014 11:20:43 am
180.kr017697Fri, 7 Feb 2014 2:34:11 pm
181.Den DrogeFri, 7 Feb 2014 7:57:21 pm
182.DDVVJD11Fri, 7 Feb 2014 8:13:37 pm
183.dexageFri, 7 Feb 2014 10:49:24 pm
184.MonstertjesSat, 8 Feb 2014 1:35:27 pm
185.serendipitiesSat, 8 Feb 2014 6:01:07 pm
186.djdaanSun, 9 Feb 2014 3:58:05 pm
187.J_n_KMon, 10 Feb 2014 5:18:45 pm
188.doorienMon, 10 Feb 2014 8:18:28 pm
189.Laroy1Mon, 10 Feb 2014 9:06:45 pm
190.peggy&johanTue, 11 Feb 2014 1:35:17 pm
191.Dr Nick AsTue, 11 Feb 2014 2:09:20 pm
192.Sergeant PainTue, 11 Feb 2014 8:26:33 pm
193.il imperiestroTue, 11 Feb 2014 8:57:38 pm
194.GNB71Tue, 11 Feb 2014 11:05:02 pm
195.opa1948Wed, 12 Feb 2014 11:20:06 am
196.familiemaasWed, 12 Feb 2014 11:18:27 pm
197.Iron SixThu, 13 Feb 2014 12:35:44 pm
198.stefgeoThu, 13 Feb 2014 6:55:28 pm
199.qltelThu, 13 Feb 2014 8:17:45 pm
200.Ellen_7Thu, 13 Feb 2014 9:17:51 pm
201.DnA-peltFri, 14 Feb 2014 7:25:37 pm
202.WandelKuubFri, 14 Feb 2014 10:54:17 pm
203.rikskevanfikskeSat, 15 Feb 2014 12:16:35 am
204.Het_fm-duoSun, 16 Feb 2014 2:03:43 pm
205.Anja-PeterSun, 16 Feb 2014 8:55:24 pm
206.nash1963Mon, 17 Feb 2014 9:02:28 am
207.TinkelPhooMon, 17 Feb 2014 1:51:42 pm
208.dertien_elfjeMon, 17 Feb 2014 9:24:29 pm
209.KareltjeTue, 18 Feb 2014 11:14:03 pm
210.langvangemertWed, 19 Feb 2014 10:30:19 pm
211.jeannouThu, 20 Feb 2014 8:27:34 am
212.voppersFri, 21 Feb 2014 10:02:22 am
213.VogelvluchtenFri, 21 Feb 2014 9:15:17 pm
214.ernasprengerSun, 23 Feb 2014 8:47:03 pm
215.STONNEMon, 24 Feb 2014 12:25:26 am
216.UnderkofferMon, 24 Feb 2014 10:28:53 am
217.nancyvdbTue, 25 Feb 2014 5:28:39 pm
218.AnthousaThu, 27 Feb 2014 8:21:57 am
219.liliremFri, 28 Feb 2014 11:10:52 pm
220.jurgelleSat, 1 Mar 2014 3:08:41 pm
221.Geostrumpf_TaffyMon, 3 Mar 2014 4:05:23 pm
222.robinhoedjeMon, 3 Mar 2014 8:50:55 pm
223.jv11096Tue, 4 Mar 2014 8:55:44 pm
224.De SprotjesWed, 5 Mar 2014 12:38:36 pm
225.de2berkjesWed, 5 Mar 2014 9:10:02 pm
226.DolomitiThu, 6 Mar 2014 7:59:53 pm
227.langevanstalFri, 7 Mar 2014 8:00:23 am
228.O-RunnerSun, 9 Mar 2014 9:55:45 am
229.HlubSun, 9 Mar 2014 10:49:04 am
230.MaxvicSun, 9 Mar 2014 12:45:01 pm
231.KlennepetteSun, 9 Mar 2014 5:11:38 pm
232.de jokkeSun, 9 Mar 2014 10:52:11 pm
233.DetSniper1C/1GrSun, 9 Mar 2014 11:27:43 pm
234.StErn22Mon, 10 Mar 2014 1:36:49 pm
235.micsepTue, 11 Mar 2014 10:01:12 am
236.CGestelTue, 11 Mar 2014 2:56:02 pm
237.grassprietekeTue, 11 Mar 2014 10:06:41 pm
238.wil&petWed, 12 Mar 2014 2:42:40 pm
239.den tureWed, 12 Mar 2014 8:50:24 pm
240.Team LoewenjaegerFri, 14 Mar 2014 9:36:20 pm
241.KnausjeSun, 16 Mar 2014 4:17:25 pm
242.Team Rocky BeachSun, 16 Mar 2014 5:42:53 pm
243.the groundhopperMon, 17 Mar 2014 3:14:18 pm
244.LilafeeMon, 17 Mar 2014 9:57:27 pm
245.PijamaWed, 19 Mar 2014 11:05:20 pm
246.martini1999Thu, 20 Mar 2014 5:13:35 am
247.Team-RoodkapjeThu, 20 Mar 2014 8:05:06 pm
248.geoketsjingThu, 20 Mar 2014 11:00:36 pm
249.NespekesFri, 21 Mar 2014 9:21:18 pm
250.TamamaartjeSat, 22 Mar 2014 11:46:03 pm
251.Team Blackfox3Mon, 24 Mar 2014 6:58:41 pm
252.het genootschapMon, 24 Mar 2014 8:23:54 pm
253.Barco'kesTue, 25 Mar 2014 5:26:02 pm
254.wscherpsTue, 25 Mar 2014 8:28:41 pm
255.niebobTue, 25 Mar 2014 8:41:37 pm
256.Griml0rdTue, 25 Mar 2014 8:42:09 pm
257.Urco28Wed, 26 Mar 2014 4:44:39 pm
258.Alex 1Fri, 28 Mar 2014 7:21:00 pm
259.columbosFri, 28 Mar 2014 9:04:49 pm
260.Edine4geoFri, 28 Mar 2014 9:42:42 pm
261.dalwalkersSat, 29 Mar 2014 9:22:55 pm
262.theraenwilbertSun, 30 Mar 2014 9:18:02 am
263.scholtismanSun, 30 Mar 2014 1:15:50 pm
264.claudlibTue, 1 Apr 2014 3:24:41 pm
265.tommeke47Tue, 1 Apr 2014 11:21:45 pm
266.De SnuffelaarsSat, 5 Apr 2014 12:38:49 am
267.vlinder74Sun, 6 Apr 2014 7:45:04 pm
268.Daf de GirafMon, 7 Apr 2014 5:44:07 pm
269.scorpion1974Mon, 7 Apr 2014 9:38:36 pm
270.FlowiesTue, 8 Apr 2014 1:53:50 pm
271.WijoWed, 9 Apr 2014 8:22:47 pm
272.cornekThu, 10 Apr 2014 2:10:44 pm
273.EgypteSun, 13 Apr 2014 8:47:11 pm
274.Geo-SabelSun, 13 Apr 2014 8:55:08 pm
275.labelflashMon, 14 Apr 2014 12:02:50 pm
276.carelvicerMon, 14 Apr 2014 6:06:31 pm
277.fade2bladeTue, 15 Apr 2014 4:34:37 pm
278.DeSchakeltjesWed, 16 Apr 2014 6:00:24 pm
279.annhenThu, 17 Apr 2014 8:50:51 pm
280.tufferkesFri, 18 Apr 2014 12:59:06 pm
281.de beestjesFri, 18 Apr 2014 11:18:54 pm
282.WooD JrFri, 18 Apr 2014 11:25:10 pm
283.ferrojojoSat, 19 Apr 2014 5:16:24 pm
284.jocosiSun, 20 Apr 2014 7:15:12 am
285.KRCGenkieSun, 20 Apr 2014 10:20:08 am
286.canyon lucMon, 21 Apr 2014 11:57:48 am
287.berepoesMon, 21 Apr 2014 3:09:56 pm
288.NoWorryManMon, 21 Apr 2014 10:53:49 pm
289.Jet&LynnWed, 23 Apr 2014 12:01:02 pm
290.SteffesofnuThu, 24 Apr 2014 3:33:50 pm
291.DappersteThu, 24 Apr 2014 9:24:51 pm
292.De Snoopy'sSat, 26 Apr 2014 12:43:34 am
293.ThAnBoSat, 26 Apr 2014 3:53:58 pm
294.de genietertjesSun, 27 Apr 2014 11:30:54 am
295.LionKing1Sun, 27 Apr 2014 12:16:51 pm
296.Tree+SerrTue, 29 Apr 2014 8:22:02 pm
297.MarludWed, 30 Apr 2014 11:39:09 am
298.KimielWed, 30 Apr 2014 6:19:29 pm
299.WhiteWolfsFri, 2 May 2014 6:48:24 pm
300.dexieSat, 3 May 2014 12:59:29 pm
301.JAS teamSun, 4 May 2014 9:27:19 am
302.mlsn1975Mon, 5 May 2014 6:06:21 pm
303.RammelaarsMon, 5 May 2014 6:36:24 pm
304.TheunskeTue, 6 May 2014 9:42:52 pm
305.DecootjeThu, 8 May 2014 12:32:10 pm
306.marc en lutFri, 9 May 2014 9:59:43 pm
307.BierbroederSun, 11 May 2014 2:53:24 pm
308.digujobraSun, 11 May 2014 6:24:19 pm
309.DYINMon, 12 May 2014 10:32:43 am
310.lunolunoMon, 12 May 2014 6:21:37 pm
311.team electrovalMon, 12 May 2014 7:28:24 pm
312.pakwegzesFri, 16 May 2014 9:52:03 pm
313.galloway1Sun, 18 May 2014 8:23:16 am
314.NAPI :)Wed, 21 May 2014 9:02:34 pm
315.dev46Fri, 23 May 2014 10:15:52 am
316.gambleselgaeFri, 23 May 2014 8:44:57 pm
317.tempovisionSat, 24 May 2014 8:39:53 pm
318.maneblusser105Sun, 25 May 2014 8:59:19 pm
319.De_HommelsMon, 26 May 2014 4:55:27 pm
320.TEAM MOSCORThu, 29 May 2014 3:03:06 pm
321.The Happy'sFri, 30 May 2014 5:38:12 pm
322.MIJEMOYOTue, 3 Jun 2014 4:57:27 pm
323.Oetie2Tue, 3 Jun 2014 5:00:43 pm
324.Rabbitt HillTue, 3 Jun 2014 7:03:29 pm
325.koetje1977Wed, 4 Jun 2014 9:12:39 pm
326.KOKOMOLOOPSat, 7 Jun 2014 8:46:08 pm
327.poemie2005Sun, 8 Jun 2014 11:15:11 am
328.wewalktoSun, 8 Jun 2014 8:54:33 pm
329.eureka-!Sun, 8 Jun 2014 10:33:02 pm
330.Thirteen00Wed, 11 Jun 2014 11:10:11 am
331.H & MSat, 14 Jun 2014 9:17:08 pm
332.mirdjSun, 15 Jun 2014 2:00:57 pm
333.maboscoSun, 15 Jun 2014 6:40:19 pm
334.BrevechtMon, 16 Jun 2014 9:54:21 pm
335.MikaïWed, 18 Jun 2014 9:54:18 pm
336.GlimpFri, 20 Jun 2014 11:52:57 pm
337.MoeliTecFri, 27 Jun 2014 9:20:22 pm
338.Spinner!Sun, 29 Jun 2014 2:17:10 pm
339.quattro4Sun, 29 Jun 2014 4:30:57 pm
340.wevertjesSun, 29 Jun 2014 10:19:20 pm
341.VlevkeMon, 30 Jun 2014 4:51:47 pm
342.de_fretMon, 30 Jun 2014 9:43:25 pm
343.sweetjoeSat, 5 Jul 2014 12:44:32 pm
344.colorfreaksSat, 5 Jul 2014 9:22:07 pm
345.Anjer291Mon, 7 Jul 2014 4:15:02 pm
346.BellomWed, 9 Jul 2014 4:11:06 pm
347.Kis1408Sat, 12 Jul 2014 6:27:12 pm
348.vinnesSun, 13 Jul 2014 4:16:05 pm
349.Witte1Thu, 17 Jul 2014 10:21:48 pm
350.karamigThu, 17 Jul 2014 11:29:05 pm
351.eric-suzySun, 20 Jul 2014 8:18:23 pm
352.metkraam20Mon, 21 Jul 2014 3:06:25 pm
353.SieMichWed, 23 Jul 2014 10:28:51 am
354.kuipers.aSat, 26 Jul 2014 2:48:20 pm
355.xizatSat, 26 Jul 2014 3:36:20 pm
356.rednorbSat, 26 Jul 2014 10:59:28 pm
357.abdij-jongenSun, 27 Jul 2014 2:14:15 pm
358.cachecache13Sun, 27 Jul 2014 3:54:11 pm
359.leroy405Mon, 28 Jul 2014 4:31:41 pm
360.lucvosTue, 29 Jul 2014 4:13:06 pm
361.Chake&YvesTue, 29 Jul 2014 8:31:16 pm
362.daniella&julienFri, 1 Aug 2014 11:42:03 pm
363.PeterDMSat, 2 Aug 2014 10:43:31 am
364.dibo jenoSun, 3 Aug 2014 11:27:07 pm
365.wolfie112Sun, 3 Aug 2014 11:58:18 pm
366.break54Tue, 5 Aug 2014 12:48:43 pm
367.7footgiantTue, 5 Aug 2014 4:50:46 pm
368.Grokky GroksonWed, 6 Aug 2014 5:54:12 pm
369.LabarcaFri, 8 Aug 2014 10:42:20 am
370.Feles LascivaSat, 9 Aug 2014 9:33:10 am
371.KoenGoosWed, 13 Aug 2014 1:50:36 am
372.ZotgevalWed, 13 Aug 2014 7:59:00 pm
373.Willem-JanSat, 16 Aug 2014 5:20:02 pm
374.Ann-HeinSat, 23 Aug 2014 8:52:04 pm
375.familyvvSun, 24 Aug 2014 4:15:00 pm
376.EburonianTue, 26 Aug 2014 3:46:43 pm
377.snollebollekesTue, 26 Aug 2014 3:47:38 pm
378.ADIMUSMon, 1 Sep 2014 11:59:48 am
379.LuckyBasterdTue, 2 Sep 2014 2:17:30 pm
380.KesannyTue, 2 Sep 2014 3:29:03 pm
381.gr briesThu, 4 Sep 2014 2:36:25 pm
382.jeanke53Sat, 6 Sep 2014 6:08:59 am
383.pietjepukkelSat, 6 Sep 2014 7:05:30 pm
384.GeohunterVBSat, 6 Sep 2014 7:10:12 pm
385.De PlassiesTue, 9 Sep 2014 9:02:38 pm
386.stunkelThu, 11 Sep 2014 10:40:34 pm
387.lowa 65Fri, 12 Sep 2014 1:56:00 pm
388.Flippie FlinkTue, 16 Sep 2014 7:36:55 pm
389.polderfamilySat, 20 Sep 2014 10:21:09 pm
390.PEKA71Sun, 21 Sep 2014 11:15:19 pm
391.Bulsara77Mon, 22 Sep 2014 1:25:00 am
392.RoedemMon, 22 Sep 2014 9:50:54 pm
393.Phil-DieSat, 27 Sep 2014 9:08:47 pm
394.deccortSat, 27 Sep 2014 10:11:29 pm
395.Kapitän Blaubär 78Tue, 30 Sep 2014 3:37:55 am
396.stofkoeWed, 1 Oct 2014 5:26:17 pm
397.AnB9Thu, 2 Oct 2014 12:52:50 pm
398.jobi44Sun, 5 Oct 2014 4:27:48 pm
399.nl-0453Mon, 13 Oct 2014 3:10:51 pm
400.Ver&LatTue, 14 Oct 2014 7:41:35 pm
401.Team_SteCyTue, 14 Oct 2014 9:18:43 pm
402.sweetlakecityWed, 15 Oct 2014 8:26:27 pm
403.countryboy1971Tue, 21 Oct 2014 5:29:30 pm
404.MilliMolliThu, 23 Oct 2014 2:35:42 am
405.Kwak & BoemelSun, 26 Oct 2014 7:35:26 pm
406.WEDI24Wed, 29 Oct 2014 1:59:23 pm
407.Kilroy B.Sat, 1 Nov 2014 5:07:59 pm
408.Turfje65Sat, 1 Nov 2014 9:24:39 pm
409.GwennyTue, 4 Nov 2014 3:45:34 pm
410.Lies&&TomThu, 6 Nov 2014 6:55:40 pm
411.KoempelTue, 11 Nov 2014 2:17:10 pm
412.ShibakeSat, 15 Nov 2014 5:57:46 pm
413.dikkkSun, 16 Nov 2014 7:23:07 pm
414.destroj007Sun, 16 Nov 2014 9:21:09 pm
415.SconeloWed, 19 Nov 2014 6:35:12 pm
416.MiseurSun, 23 Nov 2014 4:22:23 pm
417.gaudiumTue, 25 Nov 2014 6:14:13 pm
418.laika69Wed, 26 Nov 2014 8:05:37 pm
419.CrazyGekkoFri, 28 Nov 2014 11:58:51 am
420.verstraete-latruweTue, 2 Dec 2014 1:16:06 pm
421.DAVINKIFri, 5 Dec 2014 3:13:12 pm
422.CruxkeSun, 7 Dec 2014 4:44:37 pm
423.luc1961Fri, 12 Dec 2014 11:17:04 am
424.zoekbaarsFri, 19 Dec 2014 10:26:39 am
425.sesamstraatploegFri, 19 Dec 2014 11:13:22 pm
426.wimmmperMon, 22 Dec 2014 8:57:42 pm
427.ikzentSun, 28 Dec 2014 9:06:41 am
428.jjt007Mon, 29 Dec 2014 12:21:10 am
429.BP1981Fri, 2 Jan 2015 3:13:33 pm
430.ZandbaarsFri, 9 Jan 2015 11:43:42 pm
431.tootwoopSat, 10 Jan 2015 10:46:55 pm
432.PittekesSun, 11 Jan 2015 12:09:37 pm
433.groep bellaMon, 12 Jan 2015 11:47:13 am
434.HaMaSiWed, 14 Jan 2015 4:33:20 pm
435.neetslevenThu, 15 Jan 2015 11:04:32 am
436.On7dcSat, 17 Jan 2015 12:55:11 pm
437.NicketickSun, 18 Jan 2015 4:32:30 pm
438.KoidreamSun, 18 Jan 2015 5:18:53 pm
439.Lindi14Mon, 19 Jan 2015 3:19:16 pm
440.WitseMon, 19 Jan 2015 5:25:02 pm
441.nicknac01Wed, 21 Jan 2015 7:19:18 pm
442.team GeomarThu, 22 Jan 2015 9:05:37 am
443.Hammer of DoomThu, 22 Jan 2015 7:28:47 pm
444.VW T2Fri, 23 Jan 2015 2:50:55 pm
445.fr@ b.Mon, 26 Jan 2015 4:24:02 pm
446.Krikri28Mon, 26 Jan 2015 4:57:41 pm
447.De GiebelgeitjesTue, 27 Jan 2015 8:08:42 pm
448.vesje49Thu, 5 Feb 2015 10:12:10 pm
449.rinag5Sat, 7 Feb 2015 6:48:46 pm
450.Walker74Sun, 8 Feb 2015 3:10:28 pm
451.Britt en BregoFri, 13 Feb 2015 9:05:38 am
452.Norti54Fri, 13 Feb 2015 6:46:05 pm
453.Marpat5957Sat, 14 Feb 2015 5:42:02 pm
454.bostrol64Mon, 16 Feb 2015 1:06:58 am
455.Dany65Thu, 19 Feb 2015 9:12:16 pm
456.Kare8384Fri, 20 Feb 2015 12:22:00 am
457.cuppy1963Fri, 20 Feb 2015 11:02:26 am
458.MarkoLocoTue, 24 Feb 2015 1:30:13 pm
459.Running SandTue, 24 Feb 2015 9:39:20 pm
460.HeeblumkeWed, 25 Feb 2015 9:32:05 pm
461.4LinuxFri, 27 Feb 2015 9:55:52 pm
462.stoemperSat, 28 Feb 2015 6:57:31 pm
463.dagtrippers8486Thu, 5 Mar 2015 5:15:29 pm
464.bebergFri, 6 Mar 2015 5:52:34 pm
465.L EN LFri, 6 Mar 2015 10:03:39 pm
466.vloerhosteskeSat, 7 Mar 2015 9:17:13 pm
467.tKlavertjeTue, 10 Mar 2015 5:17:26 pm
468.DenDulleTue, 10 Mar 2015 10:51:36 pm
469.poohke1Thu, 12 Mar 2015 10:48:48 am
470.ronniepmvwSun, 15 Mar 2015 3:30:41 pm
471.TerMoerkesTue, 24 Mar 2015 11:35:58 am
472.poetjesThu, 26 Mar 2015 9:05:09 pm
473.SecretCaveSat, 28 Mar 2015 1:12:26 pm
474.WDFLSun, 29 Mar 2015 3:34:18 pm
475.soyoyastTue, 31 Mar 2015 12:19:53 pm
476.snekedreeTue, 31 Mar 2015 4:49:44 pm
477.LambrafTue, 31 Mar 2015 11:02:45 pm
478.lipiboTue, 31 Mar 2015 11:41:23 pm
479.SALIROSat, 11 Apr 2015 5:52:35 pm
480.ardila.nlSun, 12 Apr 2015 12:05:22 pm
481.sauvillerWed, 15 Apr 2015 8:22:20 am
482.tonmar47Wed, 15 Apr 2015 5:42:42 pm
483.pismennekeThu, 30 Apr 2015 11:32:56 pm
484.Calle & BakkiTue, 5 May 2015 12:00:51 am
485.pat_edTue, 5 May 2015 10:09:39 am
486.NyxbugTue, 5 May 2015 10:29:15 am
487.arveeprojectSat, 9 May 2015 8:26:02 am
488.lr128247Sat, 9 May 2015 1:59:30 pm
489.maccesMon, 11 May 2015 10:00:23 pm
490.sloefke5Thu, 14 May 2015 10:08:11 pm
491.maguy15Mon, 18 May 2015 3:06:19 pm
492.koperenkogelTue, 19 May 2015 12:33:47 pm
493.Jan De PauwWed, 20 May 2015 3:17:38 pm
494.gerritvanwoerkomWed, 20 May 2015 10:59:21 pm
495.Team WoubeThu, 21 May 2015 12:02:43 pm
496.berggeit2008Mon, 25 May 2015 2:30:53 am
497.bananiTue, 26 May 2015 9:27:12 am
498.raddrijerTue, 26 May 2015 10:16:55 pm
499.dapastniThu, 28 May 2015 10:01:39 am
500.TitanNardiFri, 29 May 2015 4:58:19 pm
501.stakkesSat, 30 May 2015 9:38:01 pm
502.anjaapSat, 30 May 2015 11:31:53 pm
503.kazySun, 31 May 2015 9:32:19 am
504.pfisserMon, 1 Jun 2015 7:51:44 pm
505.TingioThu, 4 Jun 2015 9:25:36 pm
506.WorkOut2019Sat, 6 Jun 2015 8:01:49 pm
507.ChripaTue, 9 Jun 2015 10:04:21 pm
508.DykaWed, 10 Jun 2015 10:22:28 am
509.AnSonicWed, 10 Jun 2015 11:54:11 am
510.JacqAnTue, 16 Jun 2015 8:02:35 am
511.De DillekesTue, 16 Jun 2015 8:47:13 pm
512.wasserijsWed, 17 Jun 2015 6:57:31 pm
513.jehan the walkingmanFri, 19 Jun 2015 10:01:53 pm
514.WilfriedvpSat, 20 Jun 2015 9:33:54 pm
515.patriekskeMon, 22 Jun 2015 10:29:37 pm
516.Fi-LuTue, 23 Jun 2015 10:40:43 pm
517.gitert4Mon, 6 Jul 2015 10:49:35 pm
518.PoepoeFri, 10 Jul 2015 6:05:04 pm
519.cindywoefFri, 10 Jul 2015 10:56:14 pm
520.rheawoefSat, 11 Jul 2015 5:04:49 pm
521.snoopyke21Mon, 13 Jul 2015 9:24:58 pm
522.lip007lipTue, 14 Jul 2015 10:44:06 am
523.hawahisiWed, 22 Jul 2015 1:17:16 pm
524.Smitje49Wed, 22 Jul 2015 2:01:22 pm
525.RockhappyNLThu, 23 Jul 2015 8:50:39 pm
526.sentinel2004Thu, 23 Jul 2015 9:35:29 pm
527.dvh1967Sun, 26 Jul 2015 5:30:16 pm
528.team_datoMon, 27 Jul 2015 6:20:50 pm
529.DavooTue, 28 Jul 2015 1:43:54 pm
530.Angelique&GertFri, 31 Jul 2015 10:14:58 pm
531.gliemSun, 2 Aug 2015 10:03:47 pm
532.ChouffkeThu, 6 Aug 2015 7:17:44 pm
533.gied54Thu, 6 Aug 2015 11:51:31 pm
534.XJLFri, 7 Aug 2015 11:05:43 pm
535.Hi-ByeSun, 9 Aug 2015 12:25:35 pm
536.Stef & KristelTue, 11 Aug 2015 7:24:44 am
537.Peter & KatrijnTue, 11 Aug 2015 9:10:02 am
538.florsa1717Wed, 12 Aug 2015 10:57:45 pm
539.supidupi2001Sat, 15 Aug 2015 10:48:59 pm
540.PingolinFri, 21 Aug 2015 2:28:56 pm
541.kipling2006Mon, 24 Aug 2015 1:45:49 pm
542.FRAEMYTue, 25 Aug 2015 9:22:42 pm
543.Jansen en JanssenSat, 5 Sep 2015 4:37:57 pm
544.paard185Mon, 7 Sep 2015 6:11:37 pm
545.BBENBPSun, 13 Sep 2015 3:44:23 pm
546.Verschueren LFri, 18 Sep 2015 12:18:09 am
547.elpierroSat, 19 Sep 2015 11:29:09 am
548.schietepoesMon, 28 Sep 2015 4:12:37 pm
549.CintaKJKWed, 30 Sep 2015 6:56:48 pm
550.Team JulleminaWed, 30 Sep 2015 7:27:17 pm
551.Dreamteam2502Fri, 2 Oct 2015 11:25:46 am
552.StijnRensSat, 3 Oct 2015 9:16:15 pm
553.botsbalMon, 5 Oct 2015 9:44:32 pm
554.SiedowaMon, 12 Oct 2015 10:55:39 pm
555.VCX1302Wed, 14 Oct 2015 11:19:11 pm
556.M.B.E.S.Fri, 16 Oct 2015 3:38:50 pm
557.BeEvySun, 18 Oct 2015 12:57:49 am
558.Hassie8720Mon, 19 Oct 2015 6:46:48 pm
559.kevertjeSat, 24 Oct 2015 8:00:59 pm
560.mtom75Tue, 27 Oct 2015 10:52:26 am
561.MardetThu, 29 Oct 2015 9:41:02 pm
562.lien&jorenFri, 6 Nov 2015 11:12:31 pm
563.ilske14Wed, 11 Nov 2015 2:55:49 pm
564.Jens VLSat, 14 Nov 2015 11:10:40 am
565.WaFiKriDiSun, 15 Nov 2015 1:06:47 pm
566.dedamesSun, 15 Nov 2015 3:21:49 pm
567.Cindy & davySun, 15 Nov 2015 7:29:37 pm
568.ghekiMon, 16 Nov 2015 8:50:26 pm
569.GreetgeWed, 18 Nov 2015 7:09:02 pm
570.roodmusThu, 19 Nov 2015 4:47:22 pm
571.mitch.croesSun, 22 Nov 2015 1:38:11 pm
572.infinity_mcMon, 23 Nov 2015 1:02:23 am
573.roelenannekeSun, 29 Nov 2015 3:01:44 pm
574.freyke82Tue, 1 Dec 2015 3:23:43 pm
575.team edvollegasTue, 1 Dec 2015 8:49:31 pm
576.Reynders JPSun, 6 Dec 2015 4:38:46 pm
577.The_MazeRunnerMon, 7 Dec 2015 10:31:19 pm
578.Lady LinnekeSat, 12 Dec 2015 10:41:43 pm
579.daborWed, 16 Dec 2015 9:31:45 pm
580.Marij en CoSun, 20 Dec 2015 5:17:30 pm
581.kato3Mon, 21 Dec 2015 8:26:45 pm
582.ams_eeTue, 22 Dec 2015 5:59:47 pm
583.ozzy07Tue, 29 Dec 2015 11:36:56 pm
584.StuiterkuikenSun, 3 Jan 2016 10:52:23 am
585.colonelbTue, 5 Jan 2016 2:00:54 pm
586.duikelaarTue, 12 Jan 2016 3:01:13 pm
587.FoezyWed, 13 Jan 2016 11:55:32 am
588.bijthMon, 18 Jan 2016 3:10:06 pm
589.Team_KnuffyyTue, 19 Jan 2016 1:38:10 pm
590.hoeffiesMon, 25 Jan 2016 4:53:03 pm
591.klavertje6Mon, 25 Jan 2016 5:47:00 pm
592.SchanullaFri, 29 Jan 2016 9:01:48 pm
593.xalalojeSat, 30 Jan 2016 5:18:59 pm
594.WIGWIGWAMWAMMon, 1 Feb 2016 4:29:19 pm
595.Team XennaTue, 2 Feb 2016 3:59:24 pm
596.KimmetjeWed, 3 Feb 2016 7:19:02 pm
597.de wolliesWed, 3 Feb 2016 9:04:38 pm
598.beverkeSat, 6 Feb 2016 2:19:25 pm
599.DaCo1979Mon, 8 Feb 2016 10:51:49 am
600.luccecThu, 11 Feb 2016 9:23:17 am
601.WiHa1106Thu, 11 Feb 2016 10:18:19 pm
602.goldgrubeSat, 13 Feb 2016 2:18:57 pm
603.an_en_erikWed, 17 Feb 2016 9:52:48 pm
604.Klein KölleMon, 22 Feb 2016 2:21:25 pm
605.teamsturmsTue, 23 Feb 2016 7:51:59 pm
606.kris en tanjaTue, 23 Feb 2016 8:25:03 pm
607.BartenEllenMon, 29 Feb 2016 7:40:48 pm
608.The CloudWed, 2 Mar 2016 7:48:19 pm
609.joke18Fri, 11 Mar 2016 5:58:37 pm
610.popfexMon, 14 Mar 2016 3:50:34 pm
611.GeoAraFri, 18 Mar 2016 9:22:27 am
612.jiske56Sun, 20 Mar 2016 6:52:15 pm
613.Team SpicyWed, 23 Mar 2016 5:10:09 pm
614.the_fonzySun, 27 Mar 2016 2:40:46 pm
615.destiny01Wed, 30 Mar 2016 8:07:54 pm
616.katleenmarcoThu, 31 Mar 2016 10:22:41 am
617.EveRan2013Thu, 31 Mar 2016 10:58:12 pm
618.rode riddersSun, 10 Apr 2016 11:32:04 am
619.2PintenWed, 13 Apr 2016 6:01:42 pm
620.DaicootjeThu, 14 Apr 2016 9:11:53 pm
621.kimeefSat, 16 Apr 2016 12:13:23 am
622.diedje54Sat, 16 Apr 2016 3:27:04 pm
623.jan0497Sat, 16 Apr 2016 9:48:10 pm
624.OpaDusMon, 18 Apr 2016 10:51:20 am
625.YarkooHThu, 21 Apr 2016 1:13:45 pm
626.mr. muscleSun, 24 Apr 2016 11:33:35 am
627.HapersSun, 1 May 2016 4:14:33 pm
628.jengskeThu, 5 May 2016 10:38:20 am
629.homeboySun, 8 May 2016 8:57:15 pm
630.MKGeesFri, 13 May 2016 3:04:24 pm
631.JVMBMon, 16 May 2016 6:12:06 pm
632.jan_en_lutMon, 16 May 2016 10:47:22 pm
633.WilallMon, 16 May 2016 11:01:38 pm
634.nordicwalkFri, 20 May 2016 11:35:18 pm
635.buffel71Tue, 24 May 2016 10:33:53 pm
636.de Perro'sWed, 25 May 2016 5:26:10 pm
637.CoolminersWed, 25 May 2016 5:27:28 pm
638.PeeceeGeelFri, 27 May 2016 9:02:54 pm
639.pelle_25Tue, 31 May 2016 9:44:36 pm
640.ccatoSun, 5 Jun 2016 4:35:37 pm
641.Lode65Fri, 24 Jun 2016 8:07:14 pm
642.omamarelMon, 27 Jun 2016 7:33:45 pm
643.victor1oomsFri, 15 Jul 2016 2:49:34 pm
644.BjernaSun, 17 Jul 2016 7:09:54 pm
645.remokeSat, 23 Jul 2016 12:14:26 am
646.BlackCookiesSun, 24 Jul 2016 10:31:17 pm
647.bestplayer1000Mon, 25 Jul 2016 6:26:04 pm
648.Nettles2014Wed, 27 Jul 2016 6:35:44 pm
649.PulpFactoryWed, 27 Jul 2016 8:26:24 pm
650.Patrick67.Wed, 27 Jul 2016 9:05:07 pm
651.friso923Fri, 5 Aug 2016 8:30:25 pm
652.topzoekertjeWed, 10 Aug 2016 7:40:55 pm
653.2DSKThu, 11 Aug 2016 10:07:42 pm
654.mi&mi2004Mon, 15 Aug 2016 8:44:56 pm
655.johannemieSat, 20 Aug 2016 7:12:56 pm
656.pat2609Sun, 21 Aug 2016 12:49:34 am
657.Spanco&KippySun, 21 Aug 2016 4:54:49 pm
658.Nemo ZardixSun, 21 Aug 2016 10:56:33 pm
659.biebieThu, 25 Aug 2016 7:02:01 pm
660.SMT58Sat, 27 Aug 2016 6:21:43 pm
661.SoemirTue, 30 Aug 2016 12:19:46 pm
662.Mathieu1979Wed, 31 Aug 2016 12:16:53 pm
663.DWX DeluxeFri, 2 Sep 2016 1:42:30 am
664.trainfreakWed, 14 Sep 2016 4:55:44 pm
665.Team DaajtThu, 15 Sep 2016 10:28:17 am
666.diatrickFri, 16 Sep 2016 8:49:23 pm
667.ArrayOfEmotionsSat, 17 Sep 2016 2:37:57 pm
668.TeamKnippeSat, 24 Sep 2016 7:33:35 pm
669.BriSan.Sun, 25 Sep 2016 9:22:48 pm
670.AwesoMeowTue, 27 Sep 2016 3:07:52 pm
671.De PannekletserTue, 27 Sep 2016 9:54:44 pm
672.dreek76Wed, 28 Sep 2016 5:06:05 pm
673.Dany 139Mon, 3 Oct 2016 11:25:17 am
674.Aga.Mem.NonWed, 5 Oct 2016 7:00:01 pm
675.Lady_Sabrina_&_CoFri, 7 Oct 2016 12:44:33 pm
676.CrazyMuppetsFri, 14 Oct 2016 8:31:47 pm
677.we20514Sun, 16 Oct 2016 10:47:32 am
678.McDuvelSun, 16 Oct 2016 11:42:37 pm
679.Voetbal SmurfThu, 20 Oct 2016 10:51:24 am
680.cach-u-crewFri, 21 Oct 2016 5:59:41 pm
681.kadeekesSat, 22 Oct 2016 11:10:21 pm
682.BoltblueTue, 25 Oct 2016 8:29:30 pm
683.rnannesThu, 27 Oct 2016 8:17:34 pm
684.tcr1978Sun, 30 Oct 2016 2:16:29 pm
685.rikske62Sun, 30 Oct 2016 2:23:22 pm
686.De CachepotsSun, 30 Oct 2016 8:33:08 pm
687.AdrieA3Fri, 4 Nov 2016 11:29:58 pm
688.smansieWed, 9 Nov 2016 8:08:16 pm
689.Team korona57Wed, 23 Nov 2016 2:05:30 pm
690.xeniavWed, 23 Nov 2016 2:48:53 pm
691.BVMJThu, 24 Nov 2016 9:19:22 pm
692.plinThu, 1 Dec 2016 6:58:46 pm
693.JorneMTue, 6 Dec 2016 6:34:19 pm
694.zonnehoekWed, 7 Dec 2016 10:53:46 am
695.filip85Wed, 7 Dec 2016 7:51:21 pm
696.LottyThu, 8 Dec 2016 2:41:00 pm
697.MitijSat, 10 Dec 2016 9:17:47 pm
698.LavaMotjesThu, 29 Dec 2016 11:39:34 pm